Vinton, IA

8:30 PM CST on January 17, 2018 (GMT -0600)
Vinton-Veterans Memorial

Weather History for KVTI - March, 2013

Change the Weather History Date:

Friday, March 1, 2013

  Actual Average Record
Temperature  
Mean Temperature 22 °F -  
Max Temperature 27 °F 42 °F 70 °F (1992)
Min Temperature 16 °F 22 °F -34 °F (1962)
Degree Days  
Heating Degree Days 43    
Moisture  
Dew Point 16 °F    
Average Humidity 71    
Maximum Humidity 88    
Minimum Humidity 54    
Precipitation  
Precipitation 0.00 in - - ()
Sea Level Pressure  
Sea Level Pressure 30.22 in    
Wind  
Wind Speed 7 mph (NNE)    
Max Wind Speed 14 mph    
Max Gust Speed -    
Visibility 9 miles    
Events Snow    
Averages and records for this station are not official NWS values.
T = Trace of Precipitation, MM = Missing Value Source: NWS Daily Summary

Daily Weather History Graph

Daily Weather History Graph

Search for Another Location

Airport or City:

Trip Planner

Search our weather history database for the weather conditions in past years. The results will help you decide how hot, cold, wet, or windy it might be!

Date:

Astronomy

Mar. 01, 2013 Rise Set
Actual Time 6:42 AM CST 5:58 PM CST
Civil Twilight 6:14 AM CST 6:26 PM CST
Nautical Twilight 5:42 AM CST 6:59 PM CST
Astronomical Twilight 5:09 AM CST 7:31 PM CST
Moon 10:38 PM CST (3/1) 8:24 AM CST (3/1)
Length of Visible Light 12h 11m
Length of Day
11h 15m
Waning Gibbous, 83% of the Moon is Illuminated
Mar 1
Waning Gibbous
Mar 4
Last Quarter
Mar 11
New
Mar 19
First Quarter
Mar 27
Full

Hourly Weather History & Observations

Time (CST) Temp. Windchill Dew Point Humidity Pressure Visibility Wind Dir Wind Speed Gust Speed Precip Events Conditions
12:15 AM 25.2 °F 19.5 °F 21.2 °F 85% 30.13 in 5.0 mi NNW 4.6 mph - N/A Snow Light Snow
12:35 AM 25.2 °F 20.9 °F 21.2 °F 85% 30.13 in 10.0 mi NNW 3.5 mph - N/A   Mostly Cloudy
12:55 AM 25.2 °F 19.5 °F 21.0 °F 84% 30.13 in 10.0 mi North 4.6 mph - N/A   Mostly Cloudy
1:15 AM 25.2 °F 20.9 °F 21.0 °F 84% 30.14 in 10.0 mi NNW 3.5 mph - N/A   Clear
1:35 AM 25.2 °F 20.9 °F 21.0 °F 84% 30.14 in 10.0 mi North 3.5 mph - N/A   Scattered Clouds
1:55 AM 25.2 °F 19.5 °F 21.0 °F 84% 30.14 in 10.0 mi North 4.6 mph - N/A Snow Light Snow
2:15 AM 25.2 °F 19.5 °F 21.2 °F 85% 30.14 in 4.0 mi North 4.6 mph - N/A   Overcast
2:35 AM 25.2 °F 19.5 °F 21.7 °F 87% 30.14 in 7.0 mi North 4.6 mph - N/A Snow Light Snow
2:55 AM 25.2 °F 19.5 °F 21.7 °F 87% 30.14 in 10.0 mi North 4.6 mph - N/A   Scattered Clouds
3:15 AM 25.2 °F 19.5 °F 22.1 °F 88% 30.14 in 10.0 mi North 4.6 mph - N/A   Clear
3:35 AM 25.2 °F 20.9 °F 22.1 °F 88% 30.14 in 7.0 mi NNW 3.5 mph - N/A Snow Light Snow
3:55 AM 25.2 °F 20.9 °F 21.7 °F 87% 30.14 in 7.0 mi NNW 3.5 mph - N/A   Mostly Cloudy
4:15 AM 25.2 °F 19.5 °F 21.2 °F 85% 30.14 in 10.0 mi North 4.6 mph - N/A   Scattered Clouds
4:35 AM 25.2 °F 19.5 °F 20.3 °F 82% 30.15 in 10.0 mi North 4.6 mph - N/A   Overcast
4:55 AM 25.2 °F 17.3 °F 18.9 °F 77% 30.15 in 10.0 mi NNE 6.9 mph - N/A   Overcast
5:15 AM 25.2 °F 16.5 °F 18.1 °F 75% 30.16 in 10.0 mi NNE 8.1 mph - N/A   Overcast
5:35 AM 25.2 °F 14.4 °F 18.3 °F 75% 30.16 in 10.0 mi NNE 11.5 mph - N/A   Overcast
5:55 AM 25.2 °F 15.1 °F 18.5 °F 76% 30.16 in 10.0 mi NNE 10.4 mph - N/A   Overcast
6:15 AM 25.2 °F 14.4 °F 18.5 °F 76% 30.17 in 10.0 mi NNE 11.5 mph - N/A   Overcast
6:35 AM 25.2 °F 15.1 °F 18.5 °F 76% 30.17 in 10.0 mi NNE 10.4 mph - N/A   Overcast
6:55 AM 25.2 °F 15.1 °F 19.0 °F 78% 30.18 in 10.0 mi NE 10.4 mph - N/A   Scattered Clouds
7:15 AM 24.4 °F 15.6 °F 18.9 °F 79% 30.19 in 10.0 mi ENE 8.1 mph - N/A   Scattered Clouds
7:35 AM 24.4 °F 15.6 °F 18.1 °F 77% 30.21 in 7.0 mi ENE 8.1 mph - N/A Snow Light Snow
7:55 AM 23.9 °F 15.0 °F 17.2 °F 76% 30.21 in 7.0 mi ENE 8.1 mph - N/A Snow Light Snow
8:15 AM 23.9 °F 15.8 °F 17.6 °F 77% 30.21 in 4.0 mi NE 6.9 mph - N/A Snow Light Snow
8:35 AM 23.9 °F 15.0 °F 18.0 °F 78% 30.22 in 3.0 mi ENE 8.1 mph - N/A Snow Light Snow
8:55 AM 23.9 °F 15.8 °F 17.6 °F 77% 30.22 in 3.0 mi ENE 6.9 mph - N/A Snow Light Snow
9:15 AM 25.2 °F 17.3 °F 18.1 °F 75% 30.22 in 4.0 mi ENE 6.9 mph - N/A Snow Light Snow
9:35 AM 25.2 °F 17.3 °F 18.1 °F 75% 30.23 in 7.0 mi NE 6.9 mph - N/A Snow Light Snow
9:55 AM 25.2 °F 15.1 °F 16.7 °F 70% 30.24 in 10.0 mi ENE 10.4 mph - N/A   Overcast
10:15 AM 25.2 °F 16.5 °F 16.0 °F 68% 30.24 in 10.0 mi NE 8.1 mph - N/A   Scattered Clouds
10:35 AM 25.2 °F 13.9 °F 15.6 °F 67% 30.25 in 10.0 mi NE 12.7 mph - N/A   Scattered Clouds
10:55 AM 27.5 °F 18.0 °F 18.1 °F 68% 30.25 in 10.0 mi NE 10.4 mph - N/A   Scattered Clouds
11:15 AM 27.5 °F 17.4 °F 17.4 °F 66% 30.25 in 10.0 mi NNE 11.5 mph - N/A   Scattered Clouds
11:35 AM 27.5 °F 17.4 °F 14.9 °F 59% 30.25 in 10.0 mi ENE 11.5 mph - N/A   Mostly Cloudy
11:55 AM 27.5 °F 17.4 °F 14.0 °F 57% 30.25 in 10.0 mi NE 11.5 mph - N/A   Mostly Cloudy
12:15 PM 27.5 °F 16.8 °F 13.1 °F 55% 30.24 in 10.0 mi NE 12.7 mph - N/A   Scattered Clouds
12:35 PM 27.5 °F 17.4 °F 13.6 °F 56% 30.24 in 10.0 mi ENE 11.5 mph - N/A   Mostly Cloudy
12:55 PM 27.5 °F 18.0 °F 13.1 °F 55% 30.24 in 10.0 mi ENE 10.4 mph - N/A   Mostly Cloudy
1:15 PM 27.5 °F 18.0 °F 12.9 °F 54% 30.23 in 10.0 mi NE 10.4 mph - N/A   Mostly Cloudy
1:35 PM 27.5 °F 17.4 °F 13.1 °F 55% 30.23 in 10.0 mi NNE 11.5 mph - N/A   Mostly Cloudy
1:55 PM 27.5 °F 16.3 °F 13.5 °F 56% 30.22 in 10.0 mi NE 13.8 mph - N/A   Mostly Cloudy
2:15 PM 27.5 °F 18.0 °F 14.9 °F 59% 30.22 in 10.0 mi NE 10.4 mph - N/A   Mostly Cloudy
2:35 PM 27.5 °F 18.6 °F 13.8 °F 56% 30.23 in 10.0 mi NE 9.2 mph - N/A   Mostly Cloudy
2:55 PM 27.5 °F 17.4 °F 13.3 °F 55% 30.23 in 10.0 mi NE 11.5 mph - N/A   Mostly Cloudy
3:15 PM 27.5 °F 17.4 °F 13.6 °F 56% 30.24 in 10.0 mi NE 11.5 mph - N/A   Mostly Cloudy
3:35 PM 27.5 °F 18.0 °F 14.2 °F 57% 30.24 in 10.0 mi North 10.4 mph - N/A   Mostly Cloudy
3:55 PM 27.5 °F 17.4 °F 13.6 °F 56% 30.25 in 10.0 mi NNE 11.5 mph - N/A   Overcast
4:15 PM 27.5 °F 17.4 °F 15.3 °F 60% 30.25 in 10.0 mi NNE 11.5 mph - N/A   Overcast
4:35 PM 27.5 °F 18.6 °F 15.4 °F 61% 30.26 in 10.0 mi NNE 9.2 mph - N/A   Overcast
4:55 PM 26.4 °F 17.3 °F 14.2 °F 60% 30.26 in 10.0 mi NNE 9.2 mph - N/A   Overcast
5:15 PM 25.2 °F 14.4 °F 13.8 °F 62% 30.26 in 10.0 mi North 11.5 mph - N/A   Overcast
5:35 PM 25.2 °F 14.4 °F 14.0 °F 63% 30.26 in 10.0 mi North 11.5 mph - N/A   Overcast
5:55 PM 25.2 °F 15.7 °F 14.0 °F 63% 30.27 in 10.0 mi North 9.2 mph - N/A   Overcast
6:15 PM 25.2 °F 16.5 °F 14.7 °F 65% 30.28 in 10.0 mi North 8.1 mph - N/A   Overcast
6:35 PM 25.2 °F 15.1 °F 16.3 °F 69% 30.28 in 10.0 mi North 10.4 mph - N/A   Overcast
6:55 PM 24.1 °F 14.4 °F 15.6 °F 70% 30.28 in 10.0 mi North 9.2 mph - N/A   Overcast
7:15 PM 23.9 °F 14.2 °F 15.6 °F 71% 30.29 in 10.0 mi North 9.2 mph - N/A   Overcast
7:35 PM 23.9 °F 14.2 °F 15.4 °F 70% 30.29 in 10.0 mi North 9.2 mph - N/A   Overcast
7:55 PM 23.9 °F 15.8 °F 15.3 °F 70% 30.29 in 10.0 mi North 6.9 mph - N/A   Overcast
8:15 PM 23.9 °F 15.0 °F 14.9 °F 69% 30.30 in 10.0 mi North 8.1 mph - N/A   Overcast
8:35 PM 23.7 °F 14.7 °F 14.0 °F 66% 30.30 in 10.0 mi North 8.1 mph - N/A   Overcast
8:55 PM 23.7 °F 16.6 °F 13.5 °F 65% 30.30 in 10.0 mi North 5.8 mph - N/A   Overcast
9:15 PM 22.6 °F 18.0 °F 12.9 °F 66% 30.30 in 10.0 mi North 3.5 mph - N/A   Overcast
9:35 PM 22.6 °F 16.5 °F 12.6 °F 65% 30.30 in 10.0 mi North 4.6 mph - N/A   Overcast
9:55 PM 22.6 °F 18.0 °F 12.7 °F 66% 30.30 in 10.0 mi NNW 3.5 mph - N/A   Overcast
10:15 PM 22.6 °F 18.0 °F 13.1 °F 67% 30.30 in 10.0 mi NNW 3.5 mph - N/A   Overcast
10:35 PM 21.4 °F 15.1 °F 12.7 °F 69% 30.29 in 10.0 mi North 4.6 mph - N/A   Overcast
10:55 PM 20.3 °F 13.8 °F 12.6 °F 72% 30.29 in 10.0 mi NNW 4.6 mph - N/A   Scattered Clouds
11:15 PM 19.0 °F 11.1 °F 12.0 °F 74% 30.29 in 10.0 mi NNW 5.8 mph - N/A   Clear
11:35 PM 17.6 °F 8.2 °F 11.1 °F 76% 30.29 in 10.0 mi NNW 6.9 mph - N/A   Clear
11:55 PM 16.3 °F 6.7 °F 10.0 °F 76% 30.29 in 10.0 mi NNW 6.9 mph - N/A   Clear